| time (UTC) | temp C | wind direction | speed KPH | gust KPH | rain 1hr cm | rain 24hr cm | rain mn cm | humidity % | barometer mb |
| 20260506195507 | 6 | 3 | 0.0 | 0.0 | 0.00 | 0.64 | 0.64 | 92 | 1009.6 |
| 20260506195003 | 6 | 18 | 1.6 | 1.6 | 0.00 | 0.64 | 0.64 | 92 | 1009.5 |
| 20260506194500 | 6 | 40 | 1.6 | 3.2 | 0.00 | 0.64 | 0.64 | 92 | 1009.6 |
| 20260506193956 | 6 | 18 | 0.0 | 1.6 | 0.00 | 0.64 | 0.64 | 92 | 1009.6 |
| 20260506193454 | 6 | 36 | 1.6 | 4.8 | 0.00 | 0.64 | 0.64 | 92 | 1009.5 |
| 20260506192950 | 6 | 52 | 1.6 | 1.6 | 0.00 | 0.64 | 0.64 | 93 | 1009.5 |
| 20260506192448 | 6 | 28 | 0.0 | 0.0 | 0.00 | 0.64 | 0.64 | 93 | 1009.7 |
| 20260506191944 | 6 | 35 | 1.6 | 1.6 | 0.00 | 0.64 | 0.64 | 93 | 1009.6 |
| 20260506191441 | 6 | 4 | 1.6 | 1.6 | 0.00 | 0.64 | 0.64 | 93 | 1009.6 |
| 20260506190937 | 6 | 314 | 1.6 | 1.6 | 0.00 | 0.64 | 0.64 | 93 | 1009.6 |
| 20260506190434 | 6 | 25 | 1.6 | 1.6 | 0.00 | 0.64 | 0.64 | 93 | 1009.6 |
| 20260506185931 | 6 | 15 | 0.0 | 1.6 | 0.00 | 0.64 | 0.64 | 93 | 1009.7 |
| 20260506185428 | 6 | 43 | 0.0 | 0.0 | 0.18 | 0.64 | 0.64 | 93 | 1009.8 |
| 20260506184925 | 6 | 29 | 0.0 | 1.6 | 0.18 | 0.64 | 0.64 | 93 | 1009.6 |
| 20260506184422 | 6 | 1 | 0.0 | 0.0 | 0.00 | 0.61 | 0.61 | 93 | 1010.0 |
| 20260506183919 | 6 | 354 | 0.0 | 0.0 | 0.00 | 0.61 | 0.61 | 93 | 1009.9 |
| 20260506183414 | 6 | 11 | 0.0 | 0.0 | 0.00 | 0.61 | 0.61 | 93 | 1009.8 |
| 20260506182912 | 6 | 13 | 1.6 | 3.2 | 0.00 | 0.61 | 0.61 | 93 | 1009.8 |
| 20260506182409 | 6 | 3 | 1.6 | 1.6 | 0.00 | 0.61 | 0.61 | 93 | 1009.8 |
| 20260506181906 | 6 | 9 | 0.0 | 0.0 | 0.13 | 0.61 | 0.61 | 93 | 1009.7 |
| 20260506181404 | 6 | 355 | 0.0 | 0.0 | 0.13 | 0.61 | 0.61 | 93 | 1009.7 |
| 20260506180901 | 6 | 20 | 1.6 | 1.6 | 0.00 | 0.58 | 0.58 | 93 | 1009.6 |
| 20260506180357 | 6 | 351 | 0.0 | 0.0 | 0.00 | 0.58 | 0.58 | 93 | 1009.5 |
| 20260506175854 | 6 | 25 | 0.0 | 1.6 | 0.18 | 0.58 | 0.58 | 93 | 1009.5 |
| 20260506175350 | 6 | 25 | 1.6 | 1.6 | 0.18 | 0.58 | 0.58 | 93 | 1009.6 |
| 20260506174847 | 6 | 19 | 0.0 | 0.0 | 0.00 | 0.56 | 0.56 | 92 | 1009.7 |
| 20260506174345 | 6 | 22 | 3.2 | 3.2 | 0.18 | 0.56 | 0.56 | 92 | 1009.8 |
| 20260506173843 | 6 | 30 | 0.0 | 1.6 | 0.18 | 0.56 | 0.56 | 92 | 1009.6 |
| 20260506173339 | 6 | 18 | 0.0 | 1.6 | 0.13 | 0.53 | 0.53 | 92 | 1009.8 |
| 20260506172836 | 6 | 337 | 0.0 | 0.0 | 0.13 | 0.53 | 0.53 | 92 | 1009.8 |
| 20260506172333 | 6 | 340 | 0.0 | 0.0 | 0.18 | 0.51 | 0.51 | 92 | 1010.0 |
| 20260506171830 | 6 | 335 | 0.0 | 0.0 | 0.30 | 0.51 | 0.51 | 91 | 1010.0 |
| 20260506171327 | 6 | 335 | 0.0 | 0.0 | 0.30 | 0.48 | 0.48 | 91 | 1010.1 |
| 20260506170825 | 6 | 309 | 0.0 | 0.0 | 0.30 | 0.46 | 0.46 | 90 | 1010.0 |
| 20260506170320 | 6 | 334 | 0.0 | 0.0 | 0.13 | 0.43 | 0.43 | 90 | 1010.0 |
| 20260506165820 | 6 | 347 | 0.0 | 0.0 | 0.18 | 0.41 | 0.41 | 89 | 1010.1 |
| 20260506165317 | 6 | 340 | 0.0 | 0.0 | 0.30 | 0.41 | 0.41 | 90 | 1009.9 |
| 20260506164813 | 6 | 351 | 1.6 | 1.6 | 0.13 | 0.38 | 0.38 | 89 | 1009.8 |
| 20260506164310 | 6 | 349 | 0.0 | 0.0 | 0.30 | 0.38 | 0.38 | 88 | 1009.9 |
| 20260506163807 | 6 | 24 | 0.0 | 0.0 | 0.18 | 0.36 | 0.36 | 87 | 1009.5 |
| 20260506163302 | 6 | 5 | 0.0 | 0.0 | 0.13 | 0.33 | 0.33 | 87 | 1009.7 |
| 20260506162758 | 6 | 25 | 0.0 | 1.6 | 0.30 | 0.33 | 0.33 | 86 | 1009.9 |
| 20260506162256 | 6 | 347 | 0.0 | 0.0 | 0.30 | 0.30 | 0.30 | 88 | 1009.9 |
| 20260506161753 | 7 | 352 | 0.0 | 0.0 | 0.30 | 0.28 | 0.28 | 86 | 1010.2 |
| 20260506161250 | 7 | 338 | 0.0 | 0.0 | 0.36 | 0.25 | 0.25 | 85 | 1010.3 |
| 20260506160748 | 6 | 44 | 1.6 | 3.2 | 0.30 | 0.23 | 0.23 | 86 | 1010.3 |
| 20260506160244 | 6 | 338 | 0.0 | 0.0 | 0.30 | 0.20 | 0.20 | 86 | 1010.2 |
| 20260506155743 | 6 | 328 | 0.0 | 0.0 | 0.30 | 0.18 | 0.18 | 85 | 1010.3 |
| 20260506155239 | 6 | 351 | 0.0 | 0.0 | 0.30 | 0.15 | 0.15 | 83 | 1010.1 |
| 20260506153352 | 7 | 5 | 1.6 | 3.2 | 0.30 | 0.05 | 0.05 | 71 | 1010.6 |
| 20260506152849 | 8 | 358 | 1.6 | 1.6 | 0.18 | 0.03 | 0.03 | 68 | 1010.6 |
| 20260506152346 | 8 | 309 | 0.0 | 0.0 | 0.00 | 0.00 | 0.00 | 62 | 1010.6 |
| 20260506151845 | 8 | 308 | 0.0 | 0.0 | 0.00 | 0.00 | 0.00 | 59 | 1010.4 |
| 20260506151341 | 8 | 348 | 0.0 | 0.0 | 0.00 | 0.00 | 0.00 | 53 | 1010.3 |
| 20260506150839 | 8 | 17 | 0.0 | 0.0 | 0.00 | 0.00 | 0.00 | 47 | 1010.1 |
| 20260506150335 | 9 | 11 | 0.0 | 0.0 | 0.00 | 0.00 | 0.00 | 46 | 1009.8 |
| 20260506145832 | 9 | 359 | 0.0 | 0.0 | 0.00 | 0.00 | 0.00 | 44 | 1009.9 |
| 20260506145328 | 10 | 3 | 1.6 | 3.2 | 0.00 | 0.00 | 0.00 | 40 | 1010.0 |
| 20260506144826 | 10 | 302 | 0.0 | 0.0 | 0.00 | 0.00 | 0.00 | 41 | 1010.2 |
| 20260506144322 | 10 | 60 | 1.6 | 1.6 | 0.00 | 0.00 | 0.00 | 37 | 1010.0 |
| 20260506143821 | 10 | 339 | 0.0 | 0.0 | 0.00 | 0.00 | 0.00 | 36 | 1010.0 |
| 20260506143317 | 10 | 34 | 0.0 | 1.6 | 0.00 | 0.00 | 0.00 | 36 | 1010.1 |
| 20260506142816 | 10 | 45 | 3.2 | 3.2 | 0.00 | 0.00 | 0.00 | 36 | 1009.6 |
| 20260506142313 | 10 | 15 | 0.0 | 1.6 | 0.00 | 0.00 | 0.00 | 35 | 1009.8 |
| 20260506141812 | 10 | 301 | 3.2 | 8.0 | 0.00 | 0.00 | 0.00 | 37 | 1009.6 |
| 20260506141309 | 10 | 17 | 0.0 | 0.0 | 0.00 | 0.00 | 0.00 | 37 | 1009.3 |
| 20260506140807 | 10 | 353 | 1.6 | 1.6 | 0.00 | 0.00 | 0.00 | 38 | 1009.3 |
| 20260506140303 | 10 | 236 | 0.0 | 1.6 | 0.00 | 0.00 | 0.00 | 40 | 1009.3 |
| 20260506135801 | 10 | 11 | 1.6 | 3.2 | 0.00 | 0.00 | 0.00 | 40 | 1009.3 |
| 20260506135257 | 10 | 8 | 1.6 | 1.6 | 0.00 | 0.00 | 0.00 | 39 | 1009.1 |
| 20260506134754 | 10 | 54 | 0.0 | 1.6 | 0.00 | 0.00 | 0.00 | 40 | 1009.5 |
| 20260506134250 | 10 | 13 | 1.6 | 1.6 | 0.00 | 0.00 | 0.00 | 42 | 1009.8 |
| 20260506133747 | 10 | 18 | 0.0 | 1.6 | 0.00 | 0.00 | 0.00 | 42 | 1009.5 |
| 20260506133244 | 10 | 335 | 0.0 | 0.0 | 0.00 | 0.00 | 0.00 | 42 | 1009.6 |
| 20260506132741 | 10 | 253 | 1.6 | 4.8 | 0.00 | 0.00 | 0.00 | 44 | 1009.7 |
| 20260506132238 | 10 | 72 | 0.0 | 0.0 | 0.00 | 0.00 | 0.00 | 45 | 1009.7 |
| 20260506131736 | 10 | 359 | 1.6 | 1.6 | 0.00 | 0.00 | 0.00 | 48 | 1009.8 |
| 20260506131231 | 11 | 33 | 3.2 | 3.2 | 0.00 | 0.00 | 0.00 | 46 | 1009.7 |
| 20260506130729 | 11 | 338 | 0.0 | 0.0 | 0.00 | 0.00 | 0.00 | 46 | 1010.1 |
| 20260506130225 | 11 | 26 | 0.0 | 0.0 | 0.00 | 0.00 | 0.00 | 45 | 1010.2 |
| 20260506125724 | 11 | 16 | 3.2 | 8.0 | 0.00 | 0.00 | 0.00 | 45 | 1010.4 |
| 20260506125221 | 11 | 351 | 0.0 | 0.0 | 0.00 | 0.00 | 0.00 | 45 | 1010.2 |
| 20260506124719 | 11 | 291 | 0.0 | 1.6 | 0.00 | 0.00 | 0.00 | 46 | 1010.0 |
| 20260506124217 | 11 | 348 | 1.6 | 1.6 | 0.00 | 0.00 | 0.00 | 44 | 1010.2 |
| 20260506123714 | 11 | 87 | 3.2 | 3.2 | 0.00 | 0.00 | 0.00 | 43 | 1010.4 |
| 20260506123213 | 11 | 250 | 1.6 | 1.6 | 0.00 | 0.00 | 0.00 | 42 | 1010.5 |
| 20260506122709 | 11 | 197 | 1.6 | 3.2 | 0.00 | 0.00 | 0.00 | 43 | 1010.9 |
| 20260506122207 | 12 | 6 | 0.0 | 1.6 | 0.00 | 0.00 | 0.00 | 43 | 1010.7 |
| 20260506121704 | 11 | 342 | 1.6 | 1.6 | 0.00 | 0.00 | 0.00 | 42 | 1010.9 |
| 20260506121200 | 12 | 122 | 0.0 | 0.0 | 0.00 | 0.00 | 0.00 | 41 | 1011.0 |
| 20260506120658 | 12 | 348 | 0.0 | 0.0 | 0.00 | 0.00 | 0.00 | 40 | 1011.0 |
| 20260506120156 | 12 | 355 | 0.0 | 1.6 | 0.00 | 0.00 | 0.00 | 41 | 1010.8 |
| 20260506115654 | 13 | 8 | 3.2 | 3.2 | 0.00 | 0.00 | 0.00 | 40 | 1010.9 |
| 20260506115152 | 13 | 12 | 0.0 | 0.0 | 0.00 | 0.00 | 0.00 | 42 | 1010.8 |
| 20260506114649 | 13 | 337 | 0.0 | 0.0 | 0.00 | 0.00 | 0.00 | 41 | 1010.7 |
| 20260506114146 | 14 | 336 | 0.0 | 1.6 | 0.00 | 0.00 | 0.00 | 40 | 1010.7 |
| 20260506113645 | 13 | 43 | 8.0 | 14.5 | 0.00 | 0.00 | 0.00 | 42 | 1010.9 |
| 20260506113142 | 13 | 271 | 1.6 | 1.6 | 0.00 | 0.00 | 0.00 | 43 | 1011.0 |
| 20260506112637 | 13 | 220 | 1.6 | 3.2 | 0.00 | 0.00 | 0.00 | 42 | 1010.7 |
| 20260506112136 | 13 | 129 | 1.6 | 3.2 | 0.00 | 0.00 | 0.00 | 43 | 1010.8 |
| 20260506111633 | 13 | 1 | 1.6 | 1.6 | 0.00 | 0.00 | 0.00 | 42 | 1010.8 |
| 20260506111131 | 13 | 44 | 1.6 | 1.6 | 0.00 | 0.00 | 0.00 | 42 | 1010.6 |
| 20260506110628 | 14 | 354 | 0.0 | 0.0 | 0.00 | 0.00 | 0.00 | 40 | 1010.5 |
| 20260506110125 | 15 | 1 | 3.2 | 4.8 | 0.00 | 0.00 | 0.00 | 39 | 1010.8 |
| 20260506105622 | 14 | 332 | 0.0 | 0.0 | 0.00 | 0.00 | 0.00 | 40 | 1010.6 |
| 20260506105119 | 13 | 26 | 1.6 | 3.2 | 0.00 | 0.00 | 0.00 | 41 | 1010.4 |
| 20260506104617 | 13 | 66 | 1.6 | 3.2 | 0.00 | 0.00 | 0.00 | 41 | 1010.7 |
| 20260506104114 | 13 | 11 | 4.8 | 4.8 | 0.00 | 0.00 | 0.00 | 39 | 1010.7 |
| 20260506103611 | 13 | 24 | 0.0 | 1.6 | 0.00 | 0.00 | 0.00 | 41 | 1010.5 |
| 20260506103108 | 14 | 310 | 1.6 | 1.6 | 0.00 | 0.00 | 0.00 | 40 | 1010.6 |
| 20260506102606 | 13 | 350 | 1.6 | 1.6 | 0.00 | 0.00 | 0.00 | 41 | 1010.6 |
| 20260506102103 | 13 | 25 | 1.6 | 1.6 | 0.00 | 0.00 | 0.00 | 39 | 1010.7 |
| 20260506101600 | 13 | 355 | 1.6 | 1.6 | 0.00 | 0.00 | 0.00 | 40 | 1010.6 |
| 20260506101057 | 13 | 289 | 0.0 | 0.0 | 0.00 | 0.00 | 0.00 | 40 | 1010.8 |
| 20260506100555 | 13 | 353 | 0.0 | 0.0 | 0.00 | 0.00 | 0.00 | 39 | 1010.8 |
| 20260506100053 | 13 | 236 | 3.2 | 4.8 | 0.00 | 0.00 | 0.00 | 38 | 1011.0 |
| 20260506095551 | 14 | 353 | 0.0 | 1.6 | 0.00 | 0.00 | 0.00 | 38 | 1010.7 |
| 20260506095048 | 14 | 45 | 0.0 | 0.0 | 0.00 | 0.00 | 0.00 | 38 | 1010.9 |
| 20260506094545 | 14 | 71 | 0.0 | 0.0 | 0.00 | 0.00 | 0.00 | 37 | 1010.7 |
| 20260506094043 | 14 | 69 | 0.0 | 1.6 | 0.00 | 0.00 | 0.00 | 38 | 1010.8 |
| 20260506093541 | 13 | 90 | 1.6 | 1.6 | 0.00 | 0.00 | 0.00 | 39 | 1010.9 |
| 20260506093038 | 13 | 5 | 0.0 | 0.0 | 0.00 | 0.00 | 0.00 | 40 | 1010.7 |
| 20260506092536 | 13 | 27 | 0.0 | 1.6 | 0.00 | 0.00 | 0.00 | 40 | 1010.9 |
| 20260506092033 | 13 | 44 | 3.2 | 4.8 | 0.00 | 0.00 | 0.00 | 39 | 1011.2 |
| 20260506091531 | 13 | 16 | 0.0 | 1.6 | 0.00 | 0.00 | 0.00 | 40 | 1010.9 |
| 20260506091028 | 13 | 301 | 1.6 | 3.2 | 0.00 | 0.00 | 0.00 | 41 | 1011.1 |
| 20260506090526 | 13 | 298 | 1.6 | 1.6 | 0.00 | 0.00 | 0.00 | 41 | 1011.1 |
| 20260506090022 | 13 | 28 | 0.0 | 1.6 | 0.00 | 0.00 | 0.00 | 41 | 1011.1 |
| 20260506085519 | 13 | 304 | 1.6 | 1.6 | 0.00 | 0.00 | 0.00 | 41 | 1011.2 |
| 20260506085015 | 13 | 345 | 0.0 | 0.0 | 0.00 | 0.00 | 0.00 | 43 | 1011.3 |
| 20260506084512 | 12 | 44 | 1.6 | 3.2 | 0.00 | 0.00 | 0.00 | 38 | 1011.3 |
| 20260506084008 | 13 | 3 | 0.0 | 1.6 | 0.00 | 0.00 | 0.00 | 38 | 1011.5 |
| 20260506083506 | 13 | 73 | 1.6 | 3.2 | 0.00 | 0.00 | 0.00 | 42 | 1011.4 |
| 20260506083003 | 12 | 0 | 1.6 | 1.6 | 0.00 | 0.00 | 0.00 | 40 | 1011.3 |
| 20260506082500 | 12 | 73 | 0.0 | 1.6 | 0.00 | 0.00 | 0.00 | 41 | 1011.1 |
| 20260506081955 | 12 | 33 | 4.8 | 4.8 | 0.00 | 0.00 | 0.00 | 42 | 1011.5 |
| 20260506081454 | 12 | 22 | 3.2 | 3.2 | 0.00 | 0.00 | 0.00 | 40 | 1011.4 |
| 20260506080951 | 12 | 3 | 0.0 | 0.0 | 0.00 | 0.00 | 0.00 | 43 | 1011.4 |
| 20260506080448 | 12 | 41 | 0.0 | 0.0 | 0.00 | 0.00 | 0.00 | 43 | 1011.4 |
| 20260506073431 | 12 | 344 | 0.0 | 0.0 | 0.00 | 0.00 | 0.00 | 45 | 1011.4 |
| 20260506072929 | 11 | 359 | 3.2 | 3.2 | 0.00 | 0.00 | 0.00 | 46 | 1011.6 |
| 20260506072426 | 11 | 358 | 0.0 | 1.6 | 0.00 | 0.00 | 0.00 | 46 | 1011.6 |
| 20260506071924 | 11 | 97 | 3.2 | 8.0 | 0.00 | 0.00 | 0.00 | 46 | 1011.4 |
| 20260506071422 | 11 | 1 | 0.0 | 1.6 | 0.00 | 0.00 | 0.00 | 47 | 1011.4 |
| 20260506070918 | 11 | 313 | 0.0 | 0.0 | 0.00 | 0.00 | 0.00 | 47 | 1011.4 |
| 20260506070415 | 11 | 89 | 1.6 | 1.6 | 0.00 | 0.00 | 0.00 | 50 | 1011.7 |
| 20260506062352 | 11 | 60 | 0.0 | 1.6 | 0.00 | 0.00 | 0.00 | 57 | 1011.3 |
| 20260506061848 | 11 | 251 | 0.0 | 0.0 | 0.00 | 0.00 | 0.00 | 56 | 1011.3 |
| 20260506061345 | 10 | 342 | 0.0 | 0.0 | 0.00 | 0.00 | 0.00 | 58 | 1011.6 |
| 20260506060843 | 10 | 359 | 1.6 | 3.2 | 0.00 | 0.00 | 0.00 | 56 | 1011.4 |
| 20260506060341 | 10 | 27 | 1.6 | 3.2 | 0.00 | 0.00 | 0.00 | 58 | 1011.3 |
| 20260506051313 | 10 | 348 | 0.0 | 0.0 | 0.00 | 0.00 | 0.00 | 68 | 1011.4 |
| 20260506050810 | 9 | 357 | 0.0 | 0.0 | 0.00 | 0.00 | 0.00 | 71 | 1011.2 |
| 20260506050308 | 10 | 7 | 0.0 | 0.0 | 0.00 | 0.00 | 0.00 | 70 | 1011.2 |
| 20260506044758 | 9 | 342 | 0.0 | 0.0 | 0.00 | 0.00 | 0.00 | 73 | 1011.5 |
| 20260506044256 | 10 | 327 | 0.0 | 0.0 | 0.00 | 0.00 | 0.00 | 72 | 1011.3 |
| 20260506043753 | 10 | 340 | 0.0 | 0.0 | 0.00 | 0.00 | 0.00 | 67 | 1011.1 |
| 20260506043250 | 10 | 354 | 0.0 | 0.0 | 0.00 | 0.00 | 0.00 | 71 | 1011.1 |
| 20260506042749 | 8 | 348 | 0.0 | 0.0 | 0.00 | 0.00 | 0.00 | 74 | 1011.1 |
| 20260506042247 | 8 | 351 | 0.0 | 0.0 | 0.00 | 0.00 | 0.00 | 75 | 1011.2 |
| 20260506041745 | 7 | 312 | 0.0 | 0.0 | 0.00 | 0.00 | 0.00 | 76 | 1011.2 |
| 20260506041242 | 7 | 295 | 0.0 | 0.0 | 0.00 | 0.00 | 0.00 | 76 | 1011.1 |
| 20260506040739 | 6 | 289 | 0.0 | 0.0 | 0.00 | 0.00 | 0.00 | 77 | 1011.1 |
| 20260506040236 | 6 | 292 | 0.0 | 0.0 | 0.00 | 0.00 | 0.00 | 79 | 1011.0 |
| 20260506035733 | 5 | 284 | 0.0 | 0.0 | 0.00 | 0.00 | 0.00 | 79 | 1011.1 |
| 20260506035230 | 5 | 284 | 0.0 | 0.0 | 0.00 | 0.00 | 0.00 | 81 | 1011.0 |
| 20260506034727 | 4 | 284 | 0.0 | 0.0 | 0.00 | 0.00 | 0.00 | 82 | 1011.1 |
| 20260506034224 | 3 | 284 | 0.0 | 0.0 | 0.00 | 0.00 | 0.00 | 83 | 1010.8 |
| 20260506033721 | 3 | 282 | 0.0 | 0.0 | 0.00 | 0.00 | 0.00 | 84 | 1011.1 |
| 20260506033218 | 3 | 281 | 0.0 | 0.0 | 0.00 | 0.00 | 0.00 | 85 | 1011.1 |
| 20260506032715 | 2 | 284 | 0.0 | 0.0 | 0.00 | 0.00 | 0.00 | 85 | 1011.0 |
| 20260506032212 | 2 | 292 | 0.0 | 0.0 | 0.00 | 0.00 | 0.00 | 85 | 1010.6 |
| 20260506031708 | 2 | 292 | 0.0 | 0.0 | 0.00 | 0.00 | 0.00 | 86 | 1010.8 |
| 20260506031206 | 2 | 292 | 0.0 | 0.0 | 0.00 | 0.00 | 0.00 | 86 | 1010.6 |
| 20260506030704 | 2 | 284 | 0.0 | 0.0 | 0.00 | 0.00 | 0.00 | 86 | 1010.6 |
| 20260506030201 | 2 | 279 | 0.0 | 0.0 | 0.00 | 0.00 | 0.00 | 86 | 1010.4 |
| 20260506025658 | 2 | 270 | 0.0 | 0.0 | 0.00 | 0.00 | 0.00 | 86 | 1010.4 |
| 20260506025154 | 2 | 267 | 0.0 | 0.0 | 0.00 | 0.00 | 0.00 | 86 | 1010.5 |
| 20260506024651 | 2 | 294 | 0.0 | 0.0 | 0.00 | 0.00 | 0.00 | 86 | 1010.5 |
| 20260506024148 | 2 | 299 | 0.0 | 0.0 | 0.00 | 0.00 | 0.00 | 86 | 1010.3 |
| 20260506023644 | 2 | 300 | 0.0 | 0.0 | 0.00 | 0.00 | 0.00 | 86 | 1010.3 |
| 20260506023141 | 2 | 299 | 0.0 | 0.0 | 0.00 | 0.00 | 0.00 | 85 | 1010.4 |
| 20260506022639 | 3 | 289 | 0.0 | 0.0 | 0.00 | 0.00 | 0.00 | 85 | 1010.3 |
| 20260506022136 | 3 | 289 | 0.0 | 0.0 | 0.00 | 0.00 | 0.00 | 85 | 1010.2 |
| 20260506021634 | 3 | 280 | 0.0 | 0.0 | 0.00 | 0.00 | 0.00 | 85 | 1010.0 |
| 20260506021131 | 3 | 279 | 0.0 | 0.0 | 0.00 | 0.00 | 0.00 | 84 | 1010.2 |
| 20260506020628 | 3 | 276 | 0.0 | 0.0 | 0.00 | 0.00 | 0.00 | 84 | 1010.1 |
| 20260506020125 | 3 | 291 | 0.0 | 1.6 | 0.00 | 0.00 | 0.00 | 84 | 1010.0 |
| 20260506015623 | 3 | 304 | 0.0 | 0.0 | 0.00 | 0.00 | 0.00 | 84 | 1010.0 |
| 20260506015119 | 3 | 309 | 0.0 | 0.0 | 0.00 | 0.00 | 0.00 | 84 | 1010.1 |
| 20260506014612 | 3 | 309 | 0.0 | 0.0 | 0.00 | 0.00 | 0.00 | 84 | 1009.9 |
| 20260506014107 | 3 | 310 | 0.0 | 0.0 | 0.00 | 0.00 | 0.00 | 84 | 1010.0 |
| 20260506013605 | 4 | 313 | 0.0 | 0.0 | 0.00 | 0.00 | 0.00 | 84 | 1010.0 |
| 20260506013102 | 4 | 313 | 0.0 | 0.0 | 0.00 | 0.00 | 0.00 | 84 | 1009.9 |
| 20260506012558 | 4 | 312 | 0.0 | 0.0 | 0.00 | 0.00 | 0.00 | 83 | 1009.8 |
| 20260506012054 | 4 | 312 | 0.0 | 0.0 | 0.00 | 0.00 | 0.00 | 82 | 1009.8 |
| 20260506011552 | 4 | 312 | 0.0 | 0.0 | 0.00 | 0.00 | 0.00 | 82 | 1009.8 |
| 20260506011043 | 5 | 312 | 0.0 | 0.0 | 0.00 | 0.00 | 0.00 | 82 | 1009.8 |
| 20260506010542 | 5 | 312 | 0.0 | 0.0 | 0.00 | 0.00 | 0.00 | 82 | 1009.6 |
| 20260506010038 | 4 | 323 | 0.0 | 0.0 | 0.00 | 0.00 | 0.00 | 82 | 1009.5 |
| 20260506005535 | 4 | 323 | 0.0 | 0.0 | 0.00 | 0.00 | 0.00 | 81 | 1009.5 |
| 20260506005031 | 5 | 323 | 0.0 | 0.0 | 0.00 | 0.00 | 0.00 | 80 | 1009.5 |
| 20260506004529 | 4 | 321 | 0.0 | 0.0 | 0.00 | 0.00 | 0.00 | 80 | 1009.3 |
| 20260506004025 | 5 | 321 | 0.0 | 0.0 | 0.00 | 0.00 | 0.00 | 79 | 1009.4 |
| 20260506003522 | 5 | 321 | 0.0 | 0.0 | 0.00 | 0.00 | 0.00 | 78 | 1009.3 |
| 20260506003018 | 5 | 321 | 0.0 | 0.0 | 0.00 | 0.00 | 0.00 | 78 | 1009.3 |
| 20260506002514 | 5 | 321 | 0.0 | 0.0 | 0.00 | 0.00 | 0.00 | 77 | 1009.2 |
| 20260506002010 | 5 | 321 | 0.0 | 0.0 | 0.00 | 0.00 | 0.00 | 77 | 1009.3 |
| 20260506001506 | 5 | 321 | 0.0 | 0.0 | 0.00 | 0.00 | 0.00 | 76 | 1009.2 |
| 20260506001004 | 5 | 320 | 0.0 | 0.0 | 0.00 | 0.00 | 0.00 | 76 | 1009.2 |
| 20260506000501 | 5 | 321 | 0.0 | 0.0 | 0.00 | 0.00 | 0.00 | 75 | 1009.3 |
| 20260505235958 | 5 | 321 | 0.0 | 0.0 | 0.00 | 0.00 | 0.00 | 75 | 1009.3 |
| 20260505235456 | 5 | 320 | 0.0 | 0.0 | 0.00 | 0.00 | 0.00 | 75 | 1009.0 |
| 20260505234953 | 5 | 320 | 0.0 | 0.0 | 0.00 | 0.00 | 0.00 | 74 | 1008.8 |
| 20260505234450 | 5 | 320 | 0.0 | 0.0 | 0.00 | 0.00 | 0.00 | 73 | 1009.3 |
| 20260505233947 | 6 | 320 | 0.0 | 0.0 | 0.00 | 0.00 | 0.00 | 73 | 1009.1 |
| 20260505233444 | 6 | 320 | 0.0 | 0.0 | 0.00 | 0.00 | 0.00 | 73 | 1009.0 |
| 20260505232942 | 6 | 302 | 0.0 | 0.0 | 0.00 | 0.00 | 0.00 | 72 | 1008.9 |
| 20260505232440 | 6 | 327 | 0.0 | 0.0 | 0.00 | 0.00 | 0.00 | 71 | 1008.9 |
| 20260505231936 | 6 | 307 | 0.0 | 0.0 | 0.00 | 0.00 | 0.00 | 71 | 1009.1 |
| 20260505231434 | 6 | 297 | 0.0 | 0.0 | 0.00 | 0.00 | 0.00 | 71 | 1008.8 |
| 20260505230932 | 6 | 351 | 0.0 | 0.0 | 0.00 | 0.00 | 0.00 | 70 | 1008.9 |
| 20260505230429 | 6 | 329 | 0.0 | 0.0 | 0.00 | 0.00 | 0.00 | 69 | 1009.1 |
| 20260505225925 | 6 | 328 | 0.0 | 0.0 | 0.00 | 0.00 | 0.00 | 68 | 1008.9 |
| 20260505225422 | 6 | 332 | 0.0 | 0.0 | 0.00 | 0.00 | 0.00 | 67 | 1008.8 |
| 20260505224918 | 6 | 349 | 0.0 | 0.0 | 0.00 | 0.00 | 0.00 | 67 | 1009.0 |
| 20260505224416 | 6 | 355 | 0.0 | 0.0 | 0.00 | 0.00 | 0.00 | 66 | 1009.1 |
| 20260505223912 | 7 | 334 | 0.0 | 0.0 | 0.00 | 0.00 | 0.00 | 65 | 1009.0 |
| 20260505223409 | 7 | 339 | 0.0 | 0.0 | 0.00 | 0.00 | 0.00 | 64 | 1008.9 |
| 20260505222905 | 7 | 342 | 0.0 | 0.0 | 0.00 | 0.00 | 0.00 | 64 | 1009.0 |
| 20260505222402 | 7 | 321 | 0.0 | 0.0 | 0.00 | 0.00 | 0.00 | 63 | 1008.9 |
| 20260505221858 | 7 | 325 | 0.0 | 0.0 | 0.00 | 0.00 | 0.00 | 63 | 1009.1 |
| 20260505221355 | 7 | 283 | 0.0 | 0.0 | 0.00 | 0.00 | 0.00 | 62 | 1008.9 |
| 20260505220853 | 7 | 8 | 0.0 | 0.0 | 0.00 | 0.00 | 0.00 | 62 | 1008.8 |
| 20260505220349 | 7 | 335 | 0.0 | 0.0 | 0.00 | 0.00 | 0.00 | 61 | 1008.8 |
| 20260505215847 | 7 | 347 | 0.0 | 0.0 | 0.00 | 0.00 | 0.00 | 62 | 1008.9 |
| 20260505215345 | 7 | 357 | 0.0 | 0.0 | 0.00 | 0.00 | 0.00 | 63 | 1008.8 |
| 20260505214843 | 7 | 322 | 0.0 | 0.0 | 0.00 | 0.00 | 0.00 | 62 | 1008.7 |
| 20260505214340 | 7 | 317 | 0.0 | 0.0 | 0.00 | 0.00 | 0.00 | 62 | 1008.8 |
| 20260505213837 | 7 | 335 | 0.0 | 0.0 | 0.00 | 0.00 | 0.00 | 61 | 1008.8 |
| 20260505213335 | 8 | 328 | 0.0 | 0.0 | 0.00 | 0.00 | 0.00 | 61 | 1008.7 |
| 20260505212831 | 8 | 308 | 0.0 | 0.0 | 0.00 | 0.00 | 0.00 | 61 | 1008.6 |
| 20260505212328 | 8 | 327 | 0.0 | 0.0 | 0.00 | 0.00 | 0.00 | 62 | 1008.5 |
| 20260505211824 | 8 | 267 | 0.0 | 0.0 | 0.00 | 0.00 | 0.00 | 62 | 1008.5 |
| 20260505211322 | 8 | 253 | 1.6 | 1.6 | 0.00 | 0.00 | 0.00 | 62 | 1008.8 |
| 20260505210818 | 8 | 345 | 0.0 | 0.0 | 0.00 | 0.00 | 0.00 | 62 | 1008.5 |
| 20260505210315 | 8 | 350 | 0.0 | 0.0 | 0.00 | 0.00 | 0.00 | 61 | 1008.4 |
| 20260505205812 | 8 | 276 | 0.0 | 1.6 | 0.00 | 0.00 | 0.00 | 61 | 1008.6 |
| 20260505205310 | 8 | 312 | 0.0 | 0.0 | 0.00 | 0.00 | 0.00 | 60 | 1008.4 |
| 20260505204807 | 8 | 338 | 0.0 | 0.0 | 0.00 | 0.00 | 0.00 | 59 | 1008.5 |
| 20260505204305 | 8 | 3 | 0.0 | 1.6 | 0.00 | 0.00 | 0.00 | 58 | 1008.5 |
| 20260505203802 | 8 | 349 | 0.0 | 1.6 | 0.00 | 0.00 | 0.00 | 57 | 1008.5 |
| 20260505203258 | 8 | 326 | 0.0 | 0.0 | 0.00 | 0.00 | 0.00 | 57 | 1008.3 |
| 20260505202754 | 8 | 352 | 0.0 | 0.0 | 0.00 | 0.00 | 0.00 | 57 | 1008.1 |
| 20260505202251 | 8 | 320 | 0.0 | 0.0 | 0.00 | 0.00 | 0.00 | 58 | 1008.4 |
| 20260505201747 | 8 | 336 | 0.0 | 1.6 | 0.00 | 0.00 | 0.00 | 59 | 1008.2 |
| 20260505201245 | 8 | 348 | 0.0 | 0.0 | 0.00 | 0.00 | 0.00 | 59 | 1008.3 |
| 20260505200743 | 8 | 345 | 0.0 | 0.0 | 0.00 | 0.00 | 0.00 | 59 | 1008.2 |
| 20260505200240 | 8 | 348 | 0.0 | 1.6 | 0.00 | 0.00 | 0.00 | 60 | 1008.1 |